Wetterdaten: Montag, 13.06.2016
Datum Zeit Auen-Temp. Temp gefhlt Luftfeuchte Luftdruck Regen Wind Richtung Richtung Sonnenschein Taupunkt Windben
13.06.2016 00:00 12,9 C 12,7 C 75 % 1011,4 hPa 0,0 mm 1,2 km/h (1 Bft) SW 225 0 min 8,6 C 0,0 km/h (0 Bft)
13.06.2016 00:05 12,9 C 12,7 C 75 % 1011,4 hPa 0,0 mm 1,5 km/h (1 Bft) W 270 0 min 8,6 C 4,8 km/h (1 Bft)
13.06.2016 00:10 12,9 C 12,7 C 75 % 1011,4 hPa 0,0 mm 1,5 km/h (1 Bft) W 270 0 min 8,6 C 4,8 km/h (1 Bft)
13.06.2016 00:15 13,0 C 12,8 C 75 % 1011,2 hPa 0,0 mm 1,5 km/h (1 Bft) W 270 0 min 8,7 C 4,8 km/h (1 Bft)
13.06.2016 00:20 13,0 C 12,8 C 75 % 1011,2 hPa 0,0 mm 0,0 km/h (0 Bft) W 270 0 min 8,7 C 0,0 km/h (0 Bft)
13.06.2016 00:25 13,0 C 12,7 C 75 % 1011,2 hPa 0,0 mm 0,0 km/h (0 Bft) W 270 0 min 8,7 C 0,0 km/h (0 Bft)
13.06.2016 00:30 13,0 C 12,7 C 75 % 1011,2 hPa 0,0 mm 0,0 km/h (0 Bft) W 270 0 min 8,7 C 0,0 km/h (0 Bft)
13.06.2016 00:35 13,0 C 12,7 C 75 % 1011,2 hPa 0,0 mm 0,0 km/h (0 Bft) W 270 0 min 8,7 C 0,0 km/h (0 Bft)
13.06.2016 00:40 13,0 C 12,7 C 75 % 1011,2 hPa 0,0 mm 0,0 km/h (0 Bft) W 270 0 min 8,7 C 0,0 km/h (0 Bft)
13.06.2016 00:45 13,0 C 12,7 C 75 % 1011,2 hPa 0,0 mm 0,0 km/h (0 Bft) W 270 0 min 8,7 C 0,0 km/h (0 Bft)
13.06.2016 00:50 12,9 C 12,6 C 75 % 1011,2 hPa 0,0 mm 0,0 km/h (0 Bft) W 270 0 min 8,6 C 0,0 km/h (0 Bft)
13.06.2016 00:55 12,8 C 12,6 C 76 % 1010,9 hPa 0,0 mm 0,0 km/h (0 Bft) W 270 0 min 8,7 C 0,0 km/h (0 Bft)
13.06.2016 01:00 12,7 C 12,6 C 76 % 1010,9 hPa 0,0 mm 0,0 km/h (0 Bft) W 270 0 min 8,6 C 0,0 km/h (0 Bft)
13.06.2016 01:05 12,8 C 12,6 C 76 % 1010,9 hPa 0,0 mm 0,0 km/h (0 Bft) W 270 0 min 8,7 C 0,0 km/h (0 Bft)
13.06.2016 01:10 12,8 C 12,5 C 76 % 1010,9 hPa 0,0 mm 0,0 km/h (0 Bft) W 270 0 min 8,7 C 0,0 km/h (0 Bft)
13.06.2016 01:15 12,7 C 12,5 C 76 % 1010,8 hPa 0,0 mm 0,0 km/h (0 Bft) W 270 0 min 8,6 C 0,0 km/h (0 Bft)
13.06.2016 01:20 12,6 C 12,4 C 76 % 1010,8 hPa 0,0 mm 0,0 km/h (0 Bft) W 270 0 min 8,5 C 0,0 km/h (0 Bft)
13.06.2016 01:25 12,4 C 12,4 C 76 % 1010,8 hPa 0,0 mm 0,0 km/h (0 Bft) W 270 0 min 8,3 C 0,0 km/h (0 Bft)
13.06.2016 01:30 12,3 C 12,4 C 76 % 1010,8 hPa 0,0 mm 0,0 km/h (0 Bft) W 270 0 min 8,2 C 0,0 km/h (0 Bft)
13.06.2016 01:35 12,2 C 12,4 C 77 % 1010,6 hPa 0,0 mm 0,0 km/h (0 Bft) W 270 0 min 8,3 C 0,0 km/h (0 Bft)
13.06.2016 01:40 12,2 C 12,4 C 77 % 1010,6 hPa 0,0 mm 0,0 km/h (0 Bft) W 270 0 min 8,3 C 0,0 km/h (0 Bft)
13.06.2016 01:45 12,3 C 12,4 C 77 % 1010,6 hPa 0,0 mm 0,0 km/h (0 Bft) W 270 0 min 8,4 C 0,0 km/h (0 Bft)
13.06.2016 01:50 12,4 C 12,4 C 77 % 1010,6 hPa 0,0 mm 0,0 km/h (0 Bft) W 270 0 min 8,5 C 0,0 km/h (0 Bft)
13.06.2016 01:55 12,5 C 12,5 C 77 % 1010,6 hPa 0,0 mm 0,0 km/h (0 Bft) W 270 0 min 8,6 C 0,0 km/h (0 Bft)
13.06.2016 02:00 12,5 C 12,5 C 78 % 1010,6 hPa 0,0 mm 0,0 km/h (0 Bft) W 270 0 min 8,8 C 0,0 km/h (0 Bft)
13.06.2016 02:05 12,5 C 12,5 C 78 % 1010,6 hPa 0,0 mm 0,0 km/h (0 Bft) W 270 0 min 8,8 C 0,0 km/h (0 Bft)
13.06.2016 02:10 12,5 C 12,5 C 78 % 1010,6 hPa 0,0 mm 0,0 km/h (0 Bft) W 270 0 min 8,8 C 0,0 km/h (0 Bft)
13.06.2016 02:15 12,5 C 12,4 C 78 % 1010,5 hPa 0,0 mm 0,0 km/h (0 Bft) W 270 0 min 8,8 C 0,0 km/h (0 Bft)
13.06.2016 02:20 12,4 C 12,2 C 78 % 1010,5 hPa 0,0 mm 0,3 km/h (0 Bft) W-NW 292 0 min 8,7 C 0,0 km/h (0 Bft)
13.06.2016 02:25 12,3 C 12,1 C 78 % 1010,5 hPa 0,0 mm 0,6 km/h (0 Bft) W-SW 247 0 min 8,6 C 3,9 km/h (1 Bft)
13.06.2016 02:30 12,3 C 12,1 C 78 % 1010,5 hPa 0,0 mm 1,8 km/h (1 Bft) W-SW 247 0 min 8,6 C 10,1 km/h (2 Bft)
13.06.2016 02:35 12,3 C 12,1 C 78 % 1010,2 hPa 0,0 mm 1,5 km/h (1 Bft) N-NW 337 0 min 8,6 C 15,5 km/h (3 Bft)
13.06.2016 02:40 12,2 C 12,1 C 78 % 1010,2 hPa 0,0 mm 1,2 km/h (1 Bft) W 270 0 min 8,5 C 0,0 km/h (0 Bft)
13.06.2016 02:45 12,2 C 12,0 C 78 % 1010,2 hPa 0,0 mm 0,0 km/h (0 Bft) W 270 0 min 8,5 C 0,0 km/h (0 Bft)
13.06.2016 02:50 12,1 C 12,0 C 78 % 1010,2 hPa 0,0 mm 0,0 km/h (0 Bft) W-SW 247 0 min 8,4 C 0,0 km/h (0 Bft)
13.06.2016 02:55 12,1 C 12,0 C 79 % 1010,2 hPa 0,0 mm 1,2 km/h (1 Bft) W-NW 292 0 min 8,6 C 8,9 km/h (2 Bft)
13.06.2016 02:56 12,1 C 11,9 C 79 % 1010,2 hPa 0,0 mm 2,7 km/h (1 Bft) W 270 0 min 8,6 C 10,7 km/h (2 Bft)
13.06.2016 02:59 12,1 C 11,9 C 79 % 1010,2 hPa 0,0 mm 2,7 km/h (1 Bft) W 270 0 min 8,6 C 10,7 km/h (2 Bft)
13.06.2016 03:00 12,1 C 11,9 C 79 % 1010,2 hPa 0,0 mm 2,7 km/h (1 Bft) W 270 0 min 8,6 C 10,7 km/h (2 Bft)
13.06.2016 03:05 12,1 C 11,7 C 79 % 1010,2 hPa 0,0 mm 3,3 km/h (1 Bft) N-NW 337 0 min 8,6 C 16,4 km/h (3 Bft)
13.06.2016 03:10 12,0 C 11,6 C 79 % 1010,2 hPa 0,0 mm 2,1 km/h (1 Bft) W 270 0 min 8,5 C 0,0 km/h (0 Bft)
13.06.2016 03:15 11,9 C 11,5 C 80 % 1010,1 hPa 0,0 mm 0,6 km/h (0 Bft) SW 225 0 min 8,6 C 0,0 km/h (0 Bft)
13.06.2016 03:20 11,8 C 11,5 C 80 % 1010,1 hPa 0,0 mm 0,0 km/h (0 Bft) S 180 0 min 8,5 C 0,0 km/h (0 Bft)
13.06.2016 03:25 11,8 C 11,4 C 80 % 1010,1 hPa 0,0 mm 0,3 km/h (0 Bft) W 270 0 min 8,5 C 0,0 km/h (0 Bft)
13.06.2016 03:30 11,8 C 11,4 C 80 % 1010,1 hPa 0,7 mm 0,6 km/h (0 Bft) W 270 0 min 8,5 C 0,0 km/h (0 Bft)
13.06.2016 03:35 11,6 C 11,3 C 81 % 1009,9 hPa 0,0 mm 0,6 km/h (0 Bft) S 180 0 min 8,5 C 0,0 km/h (0 Bft)
13.06.2016 03:40 11,6 C 11,3 C 81 % 1009,9 hPa 0,0 mm 0,0 km/h (0 Bft) NW 315 0 min 8,5 C 0,0 km/h (0 Bft)
13.06.2016 03:45 11,5 C 11,2 C 82 % 1009,9 hPa 0,0 mm 0,0 km/h (0 Bft) S-SW 202 0 min 8,5 C 0,0 km/h (0 Bft)
13.06.2016 03:50 11,5 C 11,2 C 82 % 1009,9 hPa 0,0 mm 0,3 km/h (0 Bft) S-SW 202 0 min 8,5 C 0,0 km/h (0 Bft)
13.06.2016 03:55 11,4 C 11,2 C 82 % 1010,0 hPa 0,7 mm 1,5 km/h (1 Bft) W-SW 247 0 min 8,4 C 0,0 km/h (0 Bft)
13.06.2016 04:00 11,4 C 11,2 C 82 % 1010,0 hPa 0,0 mm 1,5 km/h (1 Bft) S-SW 202 0 min 8,4 C 12,2 km/h (2 Bft)
13.06.2016 04:05 11,4 C 11,2 C 83 % 1010,0 hPa 0,0 mm 1,2 km/h (1 Bft) W-SW 247 0 min 8,6 C 0,0 km/h (0 Bft)
13.06.2016 04:10 11,4 C 11,1 C 83 % 1010,0 hPa 0,0 mm 1,2 km/h (1 Bft) S 180 0 min 8,6 C 0,0 km/h (0 Bft)
13.06.2016 04:15 11,3 C 11,1 C 83 % 1009,7 hPa 0,0 mm 0,9 km/h (0 Bft) N 360 0 min 8,5 C 0,0 km/h (0 Bft)
13.06.2016 04:20 11,3 C 11,1 C 83 % 1009,7 hPa 0,0 mm 0,6 km/h (0 Bft) S 180 0 min 8,5 C 0,0 km/h (0 Bft)
13.06.2016 04:25 11,3 C 11,1 C 83 % 1009,7 hPa 0,0 mm 1,2 km/h (1 Bft) S 180 0 min 8,5 C 0,0 km/h (0 Bft)
13.06.2016 04:30 11,3 C 11,0 C 83 % 1009,7 hPa 0,0 mm 1,8 km/h (1 Bft) W-SW 247 0 min 8,5 C 0,0 km/h (0 Bft)
13.06.2016 04:35 11,3 C 10,9 C 83 % 1009,6 hPa 0,0 mm 0,6 km/h (0 Bft) SW 225 0 min 8,5 C 0,0 km/h (0 Bft)
13.06.2016 04:40 11,3 C 10,9 C 83 % 1009,6 hPa 0,0 mm 0,0 km/h (0 Bft) S-SW 202 0 min 8,5 C 0,0 km/h (0 Bft)
13.06.2016 04:45 11,1 C 10,8 C 83 % 1009,6 hPa 0,0 mm 0,9 km/h (0 Bft) SW 225 0 min 8,3 C 8,6 km/h (2 Bft)
13.06.2016 04:50 11,1 C 10,7 C 83 % 1009,6 hPa 0,0 mm 1,2 km/h (1 Bft) SO 135 0 min 8,3 C 0,0 km/h (0 Bft)
13.06.2016 04:55 11,0 C 10,6 C 83 % 1009,4 hPa 0,0 mm 0,6 km/h (0 Bft) S-SW 202 0 min 8,2 C 0,0 km/h (0 Bft)
13.06.2016 05:00 10,9 C 10,6 C 83 % 1009,4 hPa 0,0 mm 0,3 km/h (0 Bft) S-SO 157 0 min 8,1 C 0,0 km/h (0 Bft)
13.06.2016 05:05 10,9 C 10,6 C 84 % 1009,4 hPa 0,0 mm 1,8 km/h (1 Bft) S 180 0 min 8,3 C 5,1 km/h (1 Bft)
13.06.2016 05:10 11,0 C 10,6 C 84 % 1009,4 hPa 0,0 mm 3,3 km/h (1 Bft) SW 225 0 min 8,4 C 0,0 km/h (0 Bft)
13.06.2016 05:15 10,9 C 10,4 C 84 % 1009,2 hPa 0,0 mm 2,1 km/h (1 Bft) SO 135 0 min 8,3 C 0,0 km/h (0 Bft)
13.06.2016 05:20 10,7 C 10,4 C 84 % 1009,2 hPa 0,0 mm 0,3 km/h (0 Bft) S-SO 157 0 min 8,1 C 0,0 km/h (0 Bft)
13.06.2016 05:25 10,6 C 10,3 C 84 % 1009,2 hPa 0,0 mm 0,0 km/h (0 Bft) S-SO 157 0 min 8,0 C 0,0 km/h (0 Bft)
13.06.2016 05:30 10,5 C 10,3 C 84 % 1009,2 hPa 0,0 mm 0,0 km/h (0 Bft) SO 135 0 min 7,9 C 0,0 km/h (0 Bft)
13.06.2016 05:35 10,4 C 10,2 C 84 % 1009,1 hPa 0,0 mm 0,0 km/h (0 Bft) S-SO 157 0 min 7,8 C 0,0 km/h (0 Bft)
13.06.2016 05:40 10,4 C 10,2 C 84 % 1009,1 hPa 0,0 mm 0,0 km/h (0 Bft) S 180 0 min 7,8 C 0,0 km/h (0 Bft)
13.06.2016 05:45 10,4 C 10,3 C 84 % 1009,1 hPa 0,0 mm 0,0 km/h (0 Bft) S 180 0 min 7,8 C 0,0 km/h (0 Bft)
13.06.2016 05:50 10,5 C 10,3 C 84 % 1009,1 hPa 0,0 mm 0,0 km/h (0 Bft) SO 135 0 min 7,9 C 0,0 km/h (0 Bft)
13.06.2016 05:55 10,5 C 10,4 C 85 % 1008,9 hPa 0,0 mm 0,0 km/h (0 Bft) O-SO 112 0 min 8,1 C 0,0 km/h (0 Bft)
13.06.2016 05:56 10,5 C 10,5 C 85 % 1008,9 hPa 0,0 mm 0,0 km/h (0 Bft) SO 135 0 min 8,1 C 0,0 km/h (0 Bft)
13.06.2016 06:00 10,5 C 10,5 C 85 % 1008,9 hPa 0,0 mm 0,0 km/h (0 Bft) SO 135 0 min 8,1 C 0,0 km/h (0 Bft)
13.06.2016 06:05 10,5 C 10,5 C 85 % 1008,9 hPa 0,0 mm 0,0 km/h (0 Bft) N-NO 22 0 min 8,1 C 0,0 km/h (0 Bft)
13.06.2016 06:10 10,5 C 10,5 C 85 % 1008,9 hPa 0,0 mm 0,0 km/h (0 Bft) O-NO 67 0 min 8,1 C 0,0 km/h (0 Bft)
13.06.2016 06:15 10,6 C 10,6 C 85 % 1009,0 hPa 0,0 mm 0,0 km/h (0 Bft) N 360 0 min 8,2 C 0,0 km/h (0 Bft)
13.06.2016 06:20 10,6 C 10,6 C 85 % 1009,0 hPa 0,0 mm 0,0 km/h (0 Bft) N 360 0 min 8,2 C 0,0 km/h (0 Bft)
13.06.2016 06:25 10,7 C 10,8 C 85 % 1009,0 hPa 0,0 mm 0,0 km/h (0 Bft) N-NO 22 0 min 8,3 C 0,0 km/h (0 Bft)
13.06.2016 06:30 10,9 C 10,9 C 85 % 1009,0 hPa 0,0 mm 0,0 km/h (0 Bft) NW 315 0 min 8,5 C 0,0 km/h (0 Bft)
13.06.2016 06:35 11,0 C 11,1 C 85 % 1008,7 hPa 0,0 mm 0,0 km/h (0 Bft) W-NW 292 0 min 8,6 C 0,0 km/h (0 Bft)
13.06.2016 06:40 11,1 C 11,1 C 85 % 1008,7 hPa 0,0 mm 0,0 km/h (0 Bft) NW 315 0 min 8,7 C 0,0 km/h (0 Bft)
13.06.2016 06:45 11,1 C 11,3 C 85 % 1008,7 hPa 0,0 mm 0,0 km/h (0 Bft) W-NW 292 0 min 8,7 C 0,0 km/h (0 Bft)
13.06.2016 06:50 11,1 C 11,3 C 85 % 1008,7 hPa 0,0 mm 0,0 km/h (0 Bft) N-NO 22 0 min 8,7 C 0,0 km/h (0 Bft)
13.06.2016 06:55 11,1 C 11,4 C 85 % 1008,8 hPa 0,0 mm 0,0 km/h (0 Bft) N-NW 337 0 min 8,7 C 0,0 km/h (0 Bft)
13.06.2016 07:00 11,1 C 11,4 C 85 % 1008,8 hPa 0,0 mm 0,0 km/h (0 Bft) O-NO 67 0 min 8,7 C 0,0 km/h (0 Bft)
13.06.2016 07:05 11,3 C 11,4 C 85 % 1008,8 hPa 0,0 mm 0,0 km/h (0 Bft) N-NO 22 0 min 8,9 C 0,0 km/h (0 Bft)
13.06.2016 07:10 11,3 C 11,4 C 85 % 1008,8 hPa 0,0 mm 0,0 km/h (0 Bft) NO 45 0 min 8,9 C 0,0 km/h (0 Bft)
13.06.2016 07:15 11,4 C 11,7 C 85 % 1008,6 hPa 0,0 mm 0,0 km/h (0 Bft) W-NW 292 0 min 9,0 C 0,0 km/h (0 Bft)
13.06.2016 07:20 11,6 C 11,9 C 85 % 1008,6 hPa 0,0 mm 0,0 km/h (0 Bft) O-SO 112 0 min 9,2 C 0,0 km/h (0 Bft)
13.06.2016 07:25 11,7 C 12,1 C 86 % 1008,6 hPa 0,0 mm 0,0 km/h (0 Bft) N-NW 337 0 min 9,4 C 0,0 km/h (0 Bft)
13.06.2016 07:30 11,8 C 12,2 C 86 % 1008,6 hPa 0,0 mm 0,0 km/h (0 Bft) S-SO 157 0 min 9,5 C 0,0 km/h (0 Bft)
13.06.2016 07:35 12,0 C 12,6 C 85 % 1008,5 hPa 0,0 mm 0,0 km/h (0 Bft) W 270 0 min 9,6 C 0,0 km/h (0 Bft)
13.06.2016 07:40 12,2 C 12,9 C 85 % 1008,5 hPa 0,0 mm 0,0 km/h (0 Bft) N-NO 22 0 min 9,8 C 0,0 km/h (0 Bft)
13.06.2016 07:45 12,4 C 13,3 C 85 % 1008,5 hPa 0,0 mm 0,0 km/h (0 Bft) NW 315 0 min 9,9 C 0,0 km/h (0 Bft)
13.06.2016 07:50 12,6 C 13,8 C 85 % 1008,5 hPa 0,0 mm 0,0 km/h (0 Bft) S-SO 157 0 min 10,1 C 0,0 km/h (0 Bft)
13.06.2016 07:55 12,7 C 14,1 C 85 % 1008,5 hPa 0,0 mm 0,0 km/h (0 Bft) O-SO 112 0 min 10,2 C 0,0 km/h (0 Bft)
13.06.2016 08:00 12,8 C 14,3 C 85 % 1008,5 hPa 0,0 mm 0,0 km/h (0 Bft) O-NO 67 0 min 10,3 C 0,0 km/h (0 Bft)
13.06.2016 08:05 12,9 C 14,7 C 85 % 1008,5 hPa 0,0 mm 0,0 km/h (0 Bft) N-NW 337 0 min 10,4 C 0,0 km/h (0 Bft)
13.06.2016 08:10 13,0 C 14,9 C 84 % 1008,5 hPa 0,0 mm 0,0 km/h (0 Bft) NW 315 0 min 10,4 C 0,0 km/h (0 Bft)
13.06.2016 08:15 13,6 C 16,0 C 84 % 1008,6 hPa 0,0 mm 0,0 km/h (0 Bft) W-SW 247 0 min 10,9 C 0,0 km/h (0 Bft)
13.06.2016 08:20 14,6 C 17,6 C 83 % 1008,6 hPa 0,0 mm 0,0 km/h (0 Bft) W 270 0 min 11,7 C 0,0 km/h (0 Bft)
13.06.2016 08:25 15,2 C 19,4 C 81 % 1008,6 hPa 0,0 mm 0,9 km/h (0 Bft) SW 225 5 min 12,0 C 0,0 km/h (0 Bft)
13.06.2016 08:30 14,8 C 18,8 C 79 % 1008,6 hPa 0,0 mm 0,9 km/h (0 Bft) S 180 5 min 11,2 C 0,0 km/h (0 Bft)
13.06.2016 08:35 14,6 C 17,6 C 79 % 1008,6 hPa 0,0 mm 0,9 km/h (0 Bft) NO 45 5 min 11,0 C 0,0 km/h (0 Bft)
13.06.2016 08:40 14,6 C 17,4 C 78 % 1008,6 hPa 0,0 mm 1,8 km/h (1 Bft) O-NO 67 5 min 10,8 C 0,0 km/h (0 Bft)
13.06.2016 08:45 14,7 C 17,4 C 78 % 1008,6 hPa 0,0 mm 2,1 km/h (1 Bft) SW 225 5 min 10,9 C 0,0 km/h (0 Bft)
13.06.2016 08:50 14,5 C 17,1 C 77 % 1008,6 hPa 0,0 mm 2,1 km/h (1 Bft) NW 315 5 min 10,5 C 0,0 km/h (0 Bft)
13.06.2016 08:55 14,3 C 16,4 C 77 % 1008,7 hPa 0,0 mm 1,5 km/h (1 Bft) N 360 0 min 10,3 C 0,0 km/h (0 Bft)
13.06.2016 08:56 14,3 C 16,2 C 77 % 1008,7 hPa 0,0 mm 0,6 km/h (0 Bft) NW 315 0 min 10,3 C 0,0 km/h (0 Bft)
13.06.2016 09:01 14,3 C 16,2 C 77 % 1008,7 hPa 0,0 mm 0,6 km/h (0 Bft) NW 315 0 min 10,3 C 0,0 km/h (0 Bft)
13.06.2016 09:05 14,3 C 16,1 C 76 % 1008,7 hPa 0,0 mm 0,3 km/h (0 Bft) W-NW 292 0 min 10,1 C 0,0 km/h (0 Bft)
13.06.2016 09:10 14,5 C 16,4 C 77 % 1008,7 hPa 0,0 mm 0,6 km/h (0 Bft) W 270 0 min 10,5 C 4,2 km/h (1 Bft)
13.06.2016 09:15 14,6 C 16,7 C 76 % 1009,0 hPa 0,0 mm 2,1 km/h (1 Bft) W-NW 292 0 min 10,4 C 3,6 km/h (1 Bft)
13.06.2016 09:20 14,6 C 16,8 C 76 % 1009,0 hPa 0,0 mm 2,7 km/h (1 Bft) N 360 0 min 10,4 C 0,0 km/h (0 Bft)
13.06.2016 09:25 14,4 C 15,6 C 76 % 1009,0 hPa 0,0 mm 4,5 km/h (1 Bft) S 180 0 min 10,2 C 7,7 km/h (2 Bft)
13.06.2016 09:30 14,2 C 15,0 C 76 % 1009,0 hPa 0,0 mm 6,9 km/h (2 Bft) W 270 0 min 10,0 C 16,4 km/h (3 Bft)
13.06.2016 09:35 13,8 C 14,0 C 77 % 1008,9 hPa 0,0 mm 8,3 km/h (2 Bft) W-SW 247 0 min 9,8 C 25,0 km/h (4 Bft)
13.06.2016 09:40 13,5 C 13,7 C 77 % 1008,9 hPa 0,0 mm 9,5 km/h (2 Bft) W-SW 247 0 min 9,5 C 13,7 km/h (3 Bft)
13.06.2016 09:45 13,4 C 13,5 C 78 % 1008,9 hPa 0,0 mm 10,4 km/h (2 Bft) O 90 0 min 9,6 C 28,9 km/h (5 Bft)
13.06.2016 09:50 13,3 C 13,5 C 78 % 1008,9 hPa 0,0 mm 9,5 km/h (2 Bft) W-SW 247 0 min 9,5 C 11,6 km/h (2 Bft)
13.06.2016 09:55 13,2 C 13,5 C 79 % 1008,9 hPa 0,0 mm 9,2 km/h (2 Bft) NW 315 0 min 9,6 C 14,6 km/h (3 Bft)
13.06.2016 10:00 13,3 C 13,7 C 79 % 1008,9 hPa 0,0 mm 9,2 km/h (2 Bft) W-SW 247 0 min 9,7 C 13,4 km/h (3 Bft)
13.06.2016 10:05 13,3 C 13,7 C 79 % 1008,9 hPa 0,0 mm 7,2 km/h (2 Bft) W 270 0 min 9,7 C 9,8 km/h (2 Bft)
13.06.2016 10:10 13,3 C 13,8 C 80 % 1008,9 hPa 0,0 mm 6,0 km/h (2 Bft) W-NW 292 0 min 9,9 C 15,2 km/h (3 Bft)
13.06.2016 10:15 13,2 C 13,6 C 80 % 1008,9 hPa 0,0 mm 6,9 km/h (2 Bft) W-SW 247 0 min 9,8 C 13,1 km/h (3 Bft)
13.06.2016 10:20 13,3 C 13,9 C 80 % 1008,9 hPa 0,0 mm 6,9 km/h (2 Bft) W-NW 292 0 min 9,9 C 8,9 km/h (2 Bft)
13.06.2016 10:25 13,6 C 14,7 C 80 % 1008,9 hPa 0,0 mm 5,7 km/h (1 Bft) NW 315 0 min 10,2 C 7,2 km/h (2 Bft)
13.06.2016 10:30 13,6 C 15,1 C 79 % 1008,9 hPa 0,0 mm 5,7 km/h (1 Bft) N-NW 337 0 min 10,0 C 7,5 km/h (2 Bft)
13.06.2016 10:35 14,1 C 16,3 C 79 % 1008,8 hPa 0,0 mm 6,9 km/h (2 Bft) S 180 0 min 10,5 C 4,8 km/h (1 Bft)
13.06.2016 10:40 14,7 C 17,6 C 79 % 1008,8 hPa 0,0 mm 7,2 km/h (2 Bft) NW 315 0 min 11,1 C 8,9 km/h (2 Bft)
13.06.2016 10:45 15,6 C 20,0 C 78 % 1008,8 hPa 0,0 mm 8,0 km/h (2 Bft) W 270 5 min 11,8 C 17,6 km/h (3 Bft)
13.06.2016 10:50 15,7 C 20,2 C 76 % 1008,8 hPa 0,0 mm 9,2 km/h (2 Bft) NW 315 5 min 11,5 C 10,1 km/h (2 Bft)
13.06.2016 10:55 15,6 C 20,2 C 75 % 1008,4 hPa 0,0 mm 14,3 km/h (3 Bft) W-SW 247 5 min 11,2 C 34,0 km/h (5 Bft)
13.06.2016 11:00 15,5 C 19,7 C 74 % 1008,4 hPa 0,0 mm 14,3 km/h (3 Bft) W-SW 247 5 min 10,9 C 17,0 km/h (3 Bft)
13.06.2016 11:05 15,4 C 19,1 C 74 % 1008,4 hPa 0,0 mm 11,9 km/h (2 Bft) W-SW 247 5 min 10,8 C 12,2 km/h (2 Bft)
13.06.2016 11:10 15,4 C 18,6 C 74 % 1008,4 hPa 0,0 mm 11,9 km/h (2 Bft) NW 315 0 min 10,8 C 13,1 km/h (3 Bft)
13.06.2016 11:15 15,5 C 18,5 C 74 % 1008,4 hPa 0,0 mm 11,6 km/h (2 Bft) NW 315 0 min 10,9 C 14,6 km/h (3 Bft)
13.06.2016 11:20 15,4 C 18,2 C 73 % 1008,4 hPa 0,0 mm 12,2 km/h (2 Bft) W-SW 247 0 min 10,6 C 19,4 km/h (3 Bft)
13.06.2016 11:25 15,3 C 17,5 C 74 % 1008,4 hPa 0,0 mm 11,0 km/h (2 Bft) W-NW 292 0 min 10,7 C 9,2 km/h (2 Bft)
13.06.2016 11:30 15,1 C 16,9 C 74 % 1008,4 hPa 0,0 mm 10,7 km/h (2 Bft) SW 225 0 min 10,5 C 12,8 km/h (3 Bft)
13.06.2016 11:35 14,8 C 16,3 C 74 % 1008,3 hPa 0,0 mm 10,4 km/h (2 Bft) S-SO 157 0 min 10,2 C 10,4 km/h (2 Bft)
13.06.2016 11:40 14,8 C 16,1 C 75 % 1008,3 hPa 0,0 mm 8,6 km/h (2 Bft) W-SW 247 0 min 10,4 C 9,8 km/h (2 Bft)
13.06.2016 11:45 14,9 C 16,2 C 75 % 1008,3 hPa 0,0 mm 6,6 km/h (2 Bft) W 270 0 min 10,5 C 7,7 km/h (2 Bft)
13.06.2016 11:50 14,9 C 16,1 C 76 % 1008,3 hPa 0,0 mm 5,4 km/h (1 Bft) W 270 0 min 10,7 C 0,0 km/h (0 Bft)
13.06.2016 11:55 15,2 C 16,6 C 76 % 1008,5 hPa 0,0 mm 3,9 km/h (1 Bft) NW 315 0 min 11,0 C 0,0 km/h (0 Bft)
13.06.2016 12:00 15,5 C 17,4 C 76 % 1008,5 hPa 0,0 mm 3,0 km/h (1 Bft) W-NW 292 0 min 11,3 C 15,5 km/h (3 Bft)
13.06.2016 12:02 15,6 C 18,0 C 75 % 1008,5 hPa 0,0 mm 6,6 km/h (2 Bft) NW 315 0 min 11,2 C 14,3 km/h (3 Bft)
13.06.2016 12:05 15,6 C 18,0 C 75 % 1008,5 hPa 0,0 mm 6,6 km/h (2 Bft) NW 315 0 min 11,2 C 14,3 km/h (3 Bft)
13.06.2016 12:10 15,6 C 18,1 C 75 % 1008,5 hPa 0,0 mm 7,2 km/h (2 Bft) N 360 0 min 11,2 C 7,2 km/h (2 Bft)
13.06.2016 12:15 16,3 C 20,1 C 73 % 1008,0 hPa 0,0 mm 4,5 km/h (1 Bft) N-NW 337 5 min 11,4 C 0,0 km/h (0 Bft)
13.06.2016 12:20 16,7 C 21,3 C 73 % 1008,0 hPa 0,0 mm 5,1 km/h (1 Bft) W 270 5 min 11,8 C 11,0 km/h (2 Bft)
13.06.2016 12:25 16,5 C 20,9 C 72 % 1008,0 hPa 0,0 mm 6,6 km/h (2 Bft) W-NW 292 5 min 11,4 C 10,7 km/h (2 Bft)
13.06.2016 12:30 16,4 C 20,1 C 72 % 1008,0 hPa 0,0 mm 7,5 km/h (2 Bft) W 270 5 min 11,3 C 12,2 km/h (2 Bft)
13.06.2016 12:35 16,2 C 18,9 C 72 % 1007,9 hPa 0,0 mm 8,3 km/h (2 Bft) W 270 0 min 11,1 C 9,5 km/h (2 Bft)
13.06.2016 12:40 16,0 C 18,4 C 72 % 1007,9 hPa 0,0 mm 8,9 km/h (2 Bft) W 270 0 min 11,0 C 17,6 km/h (3 Bft)
13.06.2016 12:45 16,0 C 18,6 C 72 % 1007,9 hPa 0,0 mm 10,1 km/h (2 Bft) W-SW 247 0 min 11,0 C 11,3 km/h (2 Bft)
13.06.2016 12:50 16,2 C 18,9 C 72 % 1007,9 hPa 0,0 mm 10,4 km/h (2 Bft) NW 315 0 min 11,1 C 8,0 km/h (2 Bft)
13.06.2016 12:55 16,3 C 19,3 C 71 % 1007,7 hPa 0,0 mm 11,6 km/h (2 Bft) NW 315 0 min 11,0 C 10,4 km/h (2 Bft)
13.06.2016 13:00 16,6 C 19,8 C 71 % 1007,7 hPa 0,0 mm 12,2 km/h (2 Bft) W 270 0 min 11,3 C 11,9 km/h (2 Bft)
13.06.2016 13:05 16,6 C 19,7 C 71 % 1007,7 hPa 0,0 mm 10,4 km/h (2 Bft) W-NW 292 0 min 11,3 C 15,2 km/h (3 Bft)
13.06.2016 13:10 16,9 C 19,5 C 71 % 1007,7 hPa 0,0 mm 9,8 km/h (2 Bft) W 270 0 min 11,6 C 11,3 km/h (2 Bft)
13.06.2016 13:15 17,3 C 21,2 C 70 % 1007,6 hPa 0,0 mm 10,4 km/h (2 Bft) W-NW 292 5 min 11,8 C 13,1 km/h (3 Bft)
13.06.2016 13:20 17,5 C 21,4 C 69 % 1007,6 hPa 0,0 mm 10,1 km/h (2 Bft) S 180 0 min 11,7 C 6,3 km/h (2 Bft)
13.06.2016 13:25 17,8 C 22,4 C 68 % 1007,6 hPa 0,0 mm 6,9 km/h (2 Bft) O-NO 67 5 min 11,8 C 15,8 km/h (3 Bft)
13.06.2016 13:30 17,3 C 21,5 C 66 % 1007,6 hPa 0,0 mm 5,1 km/h (1 Bft) W 270 5 min 10,9 C 0,0 km/h (0 Bft)
13.06.2016 13:35 16,4 C 18,2 C 68 % 1007,6 hPa 0,0 mm 6,3 km/h (2 Bft) W-SW 247 0 min 10,5 C 13,4 km/h (3 Bft)
13.06.2016 13:40 16,2 C 16,8 C 69 % 1007,6 hPa 0,0 mm 6,0 km/h (2 Bft) SW 225 0 min 10,5 C 8,9 km/h (2 Bft)
13.06.2016 13:45 17,0 C 18,5 C 71 % 1007,6 hPa 0,0 mm 4,5 km/h (1 Bft) W 270 0 min 11,7 C 3,9 km/h (1 Bft)
13.06.2016 13:50 17,7 C 20,9 C 70 % 1007,6 hPa 0,0 mm 5,1 km/h (1 Bft) S-SW 202 0 min 12,2 C 17,9 km/h (3 Bft)
13.06.2016 13:55 17,8 C 22,2 C 70 % 1007,6 hPa 0,0 mm 6,9 km/h (2 Bft) W-SW 247 5 min 12,3 C 6,0 km/h (2 Bft)
13.06.2016 14:00 17,6 C 22,2 C 69 % 1007,6 hPa 0,0 mm 8,6 km/h (2 Bft) W 270 5 min 11,8 C 12,2 km/h (2 Bft)
13.06.2016 14:05 17,8 C 22,0 C 68 % 1007,6 hPa 0,0 mm 8,3 km/h (2 Bft) W-SW 247 5 min 11,8 C 20,0 km/h (4 Bft)
13.06.2016 14:10 18,1 C 22,5 C 66 % 1007,6 hPa 0,0 mm 9,2 km/h (2 Bft) W 270 5 min 11,6 C 10,1 km/h (2 Bft)
13.06.2016 14:15 18,6 C 23,6 C 66 % 1007,3 hPa 0,0 mm 9,8 km/h (2 Bft) SO 135 5 min 12,1 C 19,4 km/h (3 Bft)
13.06.2016 14:20 18,6 C 23,9 C 65 % 1007,3 hPa 0,0 mm 8,0 km/h (2 Bft) NW 315 5 min 11,9 C 11,0 km/h (2 Bft)
13.06.2016 14:25 18,7 C 23,9 C 62 % 1007,3 hPa 0,0 mm 8,6 km/h (2 Bft) W-NW 292 5 min 11,3 C 14,0 km/h (3 Bft)
13.06.2016 14:30 18,4 C 23,3 C 61 % 1007,3 hPa 0,0 mm 9,5 km/h (2 Bft) S 180 5 min 10,7 C 11,9 km/h (2 Bft)
13.06.2016 14:35 17,6 C 20,9 C 63 % 1007,2 hPa 0,0 mm 12,8 km/h (3 Bft) W 270 5 min 10,5 C 15,8 km/h (3 Bft)
13.06.2016 14:40 17,5 C 20,4 C 64 % 1007,2 hPa 0,0 mm 12,8 km/h (3 Bft) W-NW 292 0 min 10,6 C 24,4 km/h (4 Bft)
13.06.2016 14:45 17,9 C 21,0 C 64 % 1007,2 hPa 0,0 mm 13,1 km/h (3 Bft) NW 315 0 min 11,0 C 26,8 km/h (4 Bft)
13.06.2016 14:50 18,3 C 21,8 C 63 % 1007,2 hPa 0,0 mm 12,8 km/h (3 Bft) N-NW 337 0 min 11,1 C 6,9 km/h (2 Bft)
13.06.2016 14:55 18,4 C 22,5 C 62 % 1007,0 hPa 0,0 mm 12,5 km/h (3 Bft) W 270 5 min 11,0 C 7,5 km/h (2 Bft)
13.06.2016 15:00 18,2 C 22,0 C 61 % 1007,0 hPa 0,0 mm 10,1 km/h (2 Bft) S 180 5 min 10,6 C 15,8 km/h (3 Bft)
13.06.2016 15:01 18,1 C 21,7 C 60 % 1007,0 hPa 0,0 mm 12,5 km/h (3 Bft) W 270 1 min 10,2 C 31,6 km/h (5 Bft)
13.06.2016 15:03 18,1 C 21,7 C 60 % 1007,0 hPa 0,0 mm 12,5 km/h (3 Bft) W 270 2 min 10,2 C 31,6 km/h (5 Bft)
13.06.2016 15:05 18,1 C 21,7 C 60 % 1007,0 hPa 0,0 mm 12,5 km/h (3 Bft) W 270 2 min 10,2 C 31,6 km/h (5 Bft)
13.06.2016 15:10 17,7 C 20,7 C 60 % 1007,0 hPa 0,0 mm 14,3 km/h (3 Bft) N 360 5 min 9,8 C 23,5 km/h (4 Bft)
13.06.2016 15:15 17,6 C 20,2 C 63 % 1006,9 hPa 0,0 mm 11,3 km/h (2 Bft) W-NW 292 0 min 10,5 C 18,8 km/h (3 Bft)
13.06.2016 15:20 17,5 C 20,1 C 63 % 1006,9 hPa 0,0 mm 10,7 km/h (2 Bft) W 270 0 min 10,4 C 6,6 km/h (2 Bft)
13.06.2016 15:25 17,2 C 19,3 C 64 % 1006,9 hPa 0,0 mm 13,7 km/h (3 Bft) NW 315 0 min 10,3 C 39,0 km/h (6 Bft)
13.06.2016 15:30 17,5 C 19,6 C 66 % 1006,9 hPa 0,0 mm 11,0 km/h (2 Bft) W-SW 247 0 min 11,1 C 32,5 km/h (5 Bft)
13.06.2016 15:35 17,6 C 20,8 C 66 % 1006,9 hPa 0,0 mm 9,2 km/h (2 Bft) S 180 0 min 11,2 C 8,0 km/h (2 Bft)
13.06.2016 15:40 17,5 C 20,7 C 64 % 1006,9 hPa 0,0 mm 12,5 km/h (3 Bft) SW 225 0 min 10,6 C 9,8 km/h (2 Bft)
13.06.2016 15:45 17,9 C 21,0 C 65 % 1006,9 hPa 0,0 mm 14,0 km/h (3 Bft) W 270 0 min 11,2 C 25,6 km/h (4 Bft)
13.06.2016 15:50 17,6 C 20,9 C 63 % 1006,9 hPa 0,0 mm 14,0 km/h (3 Bft) NW 315 5 min 10,5 C 26,5 km/h (4 Bft)
13.06.2016 15:55 17,3 C 20,1 C 62 % 1006,6 hPa 0,0 mm 16,7 km/h (3 Bft) S 180 0 min 9,9 C 40,2 km/h (6 Bft)
13.06.2016 16:00 17,5 C 20,0 C 63 % 1006,6 hPa 0,0 mm 13,1 km/h (3 Bft) S 180 0 min 10,4 C 11,0 km/h (2 Bft)
13.06.2016 16:05 18,6 C 22,6 C 62 % 1006,6 hPa 0,0 mm 10,7 km/h (2 Bft) O 90 0 min 11,2 C 16,1 km/h (3 Bft)
13.06.2016 16:10 18,7 C 23,5 C 61 % 1006,6 hPa 0,0 mm 9,5 km/h (2 Bft) W 270 5 min 11,0 C 5,4 km/h (1 Bft)
13.06.2016 16:15 18,2 C 22,4 C 60 % 1006,8 hPa 0,0 mm 8,9 km/h (2 Bft) S-SO 157 5 min 10,3 C 8,0 km/h (2 Bft)
13.06.2016 16:20 17,5 C 20,9 C 60 % 1006,8 hPa 0,0 mm 10,1 km/h (2 Bft) W 270 5 min 9,6 C 18,2 km/h (3 Bft)
13.06.2016 16:25 17,2 C 19,8 C 61 % 1006,8 hPa 0,0 mm 14,0 km/h (3 Bft) N-NW 337 0 min 9,6 C 12,2 km/h (2 Bft)
13.06.2016 16:30 17,2 C 19,3 C 61 % 1006,8 hPa 0,0 mm 15,8 km/h (3 Bft) W-NW 292 0 min 9,6 C 27,1 km/h (4 Bft)
13.06.2016 16:35 17,1 C 19,1 C 62 % 1006,7 hPa 0,0 mm 12,5 km/h (3 Bft) W-SW 247 0 min 9,8 C 12,8 km/h (3 Bft)
13.06.2016 16:40 17,1 C 19,1 C 62 % 1006,7 hPa 0,0 mm 11,6 km/h (2 Bft) SW 225 0 min 9,8 C 14,3 km/h (3 Bft)
13.06.2016 16:45 16,8 C 18,7 C 62 % 1006,7 hPa 0,0 mm 12,5 km/h (3 Bft) W 270 0 min 9,5 C 32,8 km/h (5 Bft)
13.06.2016 16:50 16,7 C 18,4 C 62 % 1006,7 hPa 0,0 mm 13,4 km/h (3 Bft) W 270 0 min 9,4 C 14,9 km/h (3 Bft)
13.06.2016 16:55 16,8 C 18,4 C 63 % 1006,8 hPa 0,0 mm 12,5 km/h (3 Bft) W 270 0 min 9,7 C 26,2 km/h (4 Bft)
13.06.2016 17:00 16,7 C 18,3 C 62 % 1006,8 hPa 0,0 mm 12,2 km/h (2 Bft) W-SW 247 0 min 9,4 C 28,0 km/h (4 Bft)
13.06.2016 17:05 16,6 C 18,1 C 62 % 1006,8 hPa 0,0 mm 14,6 km/h (3 Bft) W-SW 247 0 min 9,3 C 47,1 km/h (6 Bft)
13.06.2016 17:10 16,5 C 18,1 C 62 % 1006,8 hPa 0,0 mm 14,9 km/h (3 Bft) W 270 0 min 9,2 C 24,7 km/h (4 Bft)
13.06.2016 17:15 16,3 C 17,7 C 61 % 1006,9 hPa 0,0 mm 18,2 km/h (3 Bft) S 180 0 min 8,8 C 49,5 km/h (6 Bft)
13.06.2016 17:20 16,3 C 17,6 C 62 % 1006,9 hPa 0,0 mm 18,2 km/h (3 Bft) W-SW 247 0 min 9,0 C 11,3 km/h (2 Bft)
13.06.2016 17:25 16,2 C 17,6 C 63 % 1006,9 hPa 0,0 mm 13,7 km/h (3 Bft) W-SW 247 0 min 9,1 C 24,4 km/h (4 Bft)
13.06.2016 17:30 16,2 C 17,4 C 63 % 1006,9 hPa 0,0 mm 12,2 km/h (2 Bft) NW 315 0 min 9,1 C 6,3 km/h (2 Bft)
13.06.2016 17:35 15,9 C 16,8 C 65 % 1006,6 hPa 0,0 mm 11,0 km/h (2 Bft) W-SW 247 0 min 9,3 C 6,3 km/h (2 Bft)
13.06.2016 17:40 15,7 C 16,0 C 65 % 1006,6 hPa 0,0 mm 11,3 km/h (2 Bft) W-NW 292 0 min 9,1 C 9,8 km/h (2 Bft)
13.06.2016 17:45 15,2 C 15,1 C 67 % 1006,6 hPa 0,0 mm 11,9 km/h (2 Bft) NW 315 0 min 9,1 C 11,3 km/h (2 Bft)
13.06.2016 17:50 14,8 C 14,6 C 69 % 1006,6 hPa 0,0 mm 10,7 km/h (2 Bft) NW 315 0 min 9,2 C 10,1 km/h (2 Bft)
13.06.2016 17:55 14,4 C 14,3 C 70 % 1006,6 hPa 0,0 mm 7,7 km/h (2 Bft) N-NW 337 0 min 9,0 C 8,9 km/h (2 Bft)
13.06.2016 18:00 14,5 C 14,4 C 72 % 1006,6 hPa 0,7 mm 6,9 km/h (2 Bft) W-SW 247 0 min 9,5 C 4,5 km/h (1 Bft)
13.06.2016 18:01 14,6 C 14,5 C 73 % 1006,6 hPa 0,0 mm 6,6 km/h (2 Bft) W 270 0 min 9,8 C 11,9 km/h (2 Bft)
13.06.2016 18:04 14,6 C 14,5 C 73 % 1006,6 hPa 0,0 mm 6,6 km/h (2 Bft) W 270 0 min 9,8 C 11,9 km/h (2 Bft)
13.06.2016 18:05 14,6 C 14,5 C 73 % 1006,6 hPa 0,0 mm 6,6 km/h (2 Bft) W 270 0 min 9,8 C 11,9 km/h (2 Bft)
13.06.2016 18:10 14,5 C 14,6 C 73 % 1006,6 hPa 0,0 mm 5,7 km/h (1 Bft) S-SO 157 0 min 9,7 C 0,0 km/h (0 Bft)
13.06.2016 18:15 14,6 C 14,8 C 74 % 1006,4 hPa 0,0 mm 2,7 km/h (1 Bft) W-NW 292 0 min 10,0 C 0,0 km/h (0 Bft)
13.06.2016 18:20 14,7 C 15,0 C 75 % 1006,4 hPa 0,0 mm 1,8 km/h (1 Bft) NW 315 0 min 10,3 C 5,1 km/h (1 Bft)
13.06.2016 18:25 15,0 C 15,2 C 75 % 1006,4 hPa 0,0 mm 2,1 km/h (1 Bft) NW 315 0 min 10,6 C 8,0 km/h (2 Bft)
13.06.2016 18:30 15,0 C 15,2 C 74 % 1006,4 hPa 0,0 mm 3,3 km/h (1 Bft) W 270 0 min 10,4 C 9,2 km/h (2 Bft)
13.06.2016 18:35 15,1 C 15,6 C 74 % 1006,0 hPa 0,0 mm 3,9 km/h (1 Bft) W-NW 292 0 min 10,5 C 5,7 km/h (1 Bft)
13.06.2016 18:40 15,2 C 15,7 C 74 % 1006,0 hPa 0,0 mm 3,0 km/h (1 Bft) NW 315 0 min 10,6 C 0,0 km/h (0 Bft)
13.06.2016 18:45 15,2 C 16,0 C 74 % 1006,0 hPa 0,0 mm 2,1 km/h (1 Bft) SW 225 0 min 10,6 C 7,2 km/h (2 Bft)
13.06.2016 18:50 15,2 C 16,1 C 74 % 1006,0 hPa 0,0 mm 0,9 km/h (0 Bft) S 180 0 min 10,6 C 0,0 km/h (0 Bft)
13.06.2016 18:55 15,2 C 16,3 C 73 % 1006,3 hPa 0,0 mm 1,2 km/h (1 Bft) W-NW 292 0 min 10,4 C 0,0 km/h (0 Bft)
13.06.2016 19:00 15,2 C 16,2 C 73 % 1006,3 hPa 0,0 mm 1,5 km/h (1 Bft) W 270 0 min 10,4 C 6,9 km/h (2 Bft)
13.06.2016 19:05 15,1 C 16,1 C 73 % 1006,3 hPa 0,0 mm 3,3 km/h (1 Bft) NW 315 0 min 10,3 C 0,0 km/h (0 Bft)
13.06.2016 19:10 15,1 C 16,0 C 73 % 1006,3 hPa 0,0 mm 4,2 km/h (1 Bft) W-NW 292 0 min 10,3 C 12,5 km/h (3 Bft)
13.06.2016 19:15 15,0 C 15,8 C 73 % 1006,2 hPa 0,0 mm 3,9 km/h (1 Bft) NW 315 0 min 10,2 C 0,0 km/h (0 Bft)
13.06.2016 19:20 15,0 C 15,7 C 73 % 1006,2 hPa 0,0 mm 4,2 km/h (1 Bft) NW 315 0 min 10,2 C 0,0 km/h (0 Bft)
13.06.2016 19:25 14,9 C 15,6 C 73 % 1006,2 hPa 0,0 mm 2,7 km/h (1 Bft) S-SO 157 0 min 10,1 C 0,0 km/h (0 Bft)
13.06.2016 19:30 14,9 C 15,5 C 72 % 1006,2 hPa 0,0 mm 3,0 km/h (1 Bft) S 180 0 min 9,9 C 7,2 km/h (2 Bft)
13.06.2016 19:35 14,8 C 15,4 C 72 % 1006,2 hPa 0,0 mm 4,2 km/h (1 Bft) SW 225 0 min 9,8 C 14,3 km/h (3 Bft)
13.06.2016 19:40 14,8 C 15,3 C 72 % 1006,2 hPa 0,0 mm 4,8 km/h (1 Bft) S-SO 157 0 min 9,8 C 4,2 km/h (1 Bft)
13.06.2016 19:45 14,7 C 15,1 C 72 % 1006,2 hPa 0,0 mm 3,6 km/h (1 Bft) W-SW 247 0 min 9,7 C 0,0 km/h (0 Bft)
13.06.2016 19:50 14,7 C 15,0 C 72 % 1006,2 hPa 0,0 mm 1,8 km/h (1 Bft) S 180 0 min 9,7 C 4,5 km/h (1 Bft)
13.06.2016 19:55 14,6 C 14,9 C 73 % 1006,4 hPa 0,0 mm 1,5 km/h (1 Bft) S 180 0 min 9,8 C 0,0 km/h (0 Bft)
13.06.2016 20:00 14,6 C 14,8 C 73 % 1006,4 hPa 0,0 mm 1,2 km/h (1 Bft) SO 135 0 min 9,8 C 0,0 km/h (0 Bft)
13.06.2016 20:05 14,4 C 14,6 C 73 % 1006,4 hPa 0,0 mm 1,8 km/h (1 Bft) S-SW 202 0 min 9,6 C 8,0 km/h (2 Bft)
13.06.2016 20:10 14,3 C 14,5 C 73 % 1006,4 hPa 0,0 mm 3,6 km/h (1 Bft) W-SW 247 0 min 9,5 C 10,7 km/h (2 Bft)
13.06.2016 20:15 14,3 C 14,3 C 73 % 1006,2 hPa 0,0 mm 2,7 km/h (1 Bft) SW 225 0 min 9,5 C 0,0 km/h (0 Bft)
13.06.2016 20:20 14,1 C 14,2 C 74 % 1006,2 hPa 0,0 mm 0,9 km/h (0 Bft) W-SW 247 0 min 9,5 C 6,3 km/h (2 Bft)
13.06.2016 20:25 14,1 C 14,2 C 74 % 1006,2 hPa 0,0 mm 0,6 km/h (0 Bft) W-SW 247 0 min 9,5 C 0,0 km/h (0 Bft)
13.06.2016 20:30 14,1 C 14,1 C 74 % 1006,2 hPa 0,0 mm 0,6 km/h (0 Bft) SW 225 0 min 9,5 C 0,0 km/h (0 Bft)
13.06.2016 20:35 14,0 C 14,0 C 74 % 1006,1 hPa 0,0 mm 0,0 km/h (0 Bft) W-SW 247 0 min 9,4 C 0,0 km/h (0 Bft)
13.06.2016 20:40 14,0 C 14,0 C 74 % 1006,1 hPa 0,0 mm 0,0 km/h (0 Bft) S 180 0 min 9,4 C 0,0 km/h (0 Bft)
13.06.2016 20:45 14,0 C 13,9 C 74 % 1006,1 hPa 0,0 mm 0,0 km/h (0 Bft) O-NO 67 0 min 9,4 C 0,0 km/h (0 Bft)
13.06.2016 20:50 13,9 C 13,9 C 74 % 1006,1 hPa 0,0 mm 0,0 km/h (0 Bft) S-SW 202 0 min 9,3 C 0,0 km/h (0 Bft)
13.06.2016 20:55 13,9 C 13,9 C 74 % 1006,2 hPa 0,0 mm 0,0 km/h (0 Bft) NW 315 0 min 9,3 C 0,0 km/h (0 Bft)
13.06.2016 21:00 13,9 C 13,9 C 74 % 1006,2 hPa 0,0 mm 0,0 km/h (0 Bft) S-SW 202 0 min 9,3 C 0,0 km/h (0 Bft)
13.06.2016 21:01 13,9 C 13,8 C 75 % 1006,2 hPa 0,0 mm 0,0 km/h (0 Bft) W-SW 247 0 min 9,5 C 0,0 km/h (0 Bft)
13.06.2016 21:05 13,9 C 13,8 C 75 % 1006,2 hPa 0,0 mm 0,0 km/h (0 Bft) W-SW 247 0 min 9,5 C 0,0 km/h (0 Bft)
13.06.2016 21:10 13,8 C 13,7 C 75 % 1006,2 hPa 0,0 mm 0,0 km/h (0 Bft) W 270 0 min 9,4 C 0,0 km/h (0 Bft)
13.06.2016 21:15 13,7 C 13,5 C 75 % 1006,2 hPa 0,0 mm 0,0 km/h (0 Bft) N-NW 337 0 min 9,3 C 0,0 km/h (0 Bft)
13.06.2016 21:20 13,6 C 13,4 C 75 % 1006,2 hPa 0,0 mm 0,0 km/h (0 Bft) SW 225 0 min 9,3 C 0,0 km/h (0 Bft)
13.06.2016 21:25 13,6 C 13,4 C 75 % 1006,2 hPa 0,0 mm 0,0 km/h (0 Bft) W 270 0 min 9,3 C 0,0 km/h (0 Bft)
13.06.2016 21:30 13,5 C 13,1 C 76 % 1006,2 hPa 0,0 mm 0,0 km/h (0 Bft) W-SW 247 0 min 9,4 C 0,0 km/h (0 Bft)
13.06.2016 21:35 13,3 C 12,9 C 77 % 1006,5 hPa 0,7 mm 0,0 km/h (0 Bft) S 180 0 min 9,4 C 0,0 km/h (0 Bft)
13.06.2016 21:40 13,1 C 12,7 C 77 % 1006,5 hPa 0,0 mm 1,8 km/h (1 Bft) W 270 0 min 9,2 C 11,6 km/h (2 Bft)
13.06.2016 21:45 12,7 C 12,2 C 78 % 1006,5 hPa 2,1 mm 8,0 km/h (2 Bft) W-SW 247 0 min 9,0 C 3,6 km/h (1 Bft)
13.06.2016 21:50 12,3 C 11,9 C 79 % 1006,5 hPa 0,7 mm 8,6 km/h (2 Bft) W-NW 292 0 min 8,8 C 8,3 km/h (2 Bft)
13.06.2016 21:55 12,0 C 11,6 C 79 % 1006,8 hPa 0,7 mm 2,1 km/h (1 Bft) N-NO 22 0 min 8,5 C 0,0 km/h (0 Bft)
13.06.2016 22:00 11,9 C 11,6 C 79 % 1006,8 hPa 0,0 mm 0,9 km/h (0 Bft) S-SO 157 0 min 8,4 C 0,0 km/h (0 Bft)
13.06.2016 22:05 11,7 C 11,4 C 80 % 1006,8 hPa 1,4 mm 0,0 km/h (0 Bft) SO 135 0 min 8,4 C 0,0 km/h (0 Bft)
13.06.2016 22:10 11,6 C 11,4 C 80 % 1006,8 hPa 0,0 mm 0,0 km/h (0 Bft) O-SO 112 0 min 8,3 C 0,0 km/h (0 Bft)
13.06.2016 22:15 11,5 C 11,3 C 81 % 1006,5 hPa 0,0 mm 0,0 km/h (0 Bft) S-SW 202 0 min 8,4 C 0,0 km/h (0 Bft)
13.06.2016 22:20 11,5 C 11,3 C 81 % 1006,5 hPa 0,0 mm 0,0 km/h (0 Bft) W-SW 247 0 min 8,4 C 0,0 km/h (0 Bft)
13.06.2016 22:25 11,5 C 11,4 C 82 % 1006,5 hPa 0,7 mm 0,0 km/h (0 Bft) NW 315 0 min 8,5 C 0,0 km/h (0 Bft)
13.06.2016 22:30 11,5 C 11,4 C 82 % 1006,5 hPa 0,0 mm 0,0 km/h (0 Bft) W-SW 247 0 min 8,5 C 0,0 km/h (0 Bft)
13.06.2016 22:35 11,4 C 11,2 C 82 % 1006,8 hPa 0,0 mm 0,0 km/h (0 Bft) NO 45 0 min 8,4 C 0,0 km/h (0 Bft)
13.06.2016 22:40 11,4 C 11,3 C 82 % 1006,8 hPa 0,0 mm 0,0 km/h (0 Bft) N 360 0 min 8,4 C 0,0 km/h (0 Bft)
13.06.2016 22:45 11,4 C 11,3 C 83 % 1006,8 hPa 0,0 mm 0,0 km/h (0 Bft) S-SW 202 0 min 8,6 C 0,0 km/h (0 Bft)
13.06.2016 22:50 11,4 C 11,3 C 83 % 1006,8 hPa 0,0 mm 0,0 km/h (0 Bft) SW 225 0 min 8,6 C 0,0 km/h (0 Bft)
13.06.2016 22:55 11,3 C 11,3 C 83 % 1006,6 hPa 0,0 mm 0,0 km/h (0 Bft) O 90 0 min 8,5 C 0,0 km/h (0 Bft)
13.06.2016 23:00 11,3 C 11,3 C 83 % 1006,6 hPa 0,0 mm 0,0 km/h (0 Bft) SO 135 0 min 8,5 C 0,0 km/h (0 Bft)
13.06.2016 23:05 11,3 C 11,3 C 83 % 1006,6 hPa 0,7 mm 0,0 km/h (0 Bft) NO 45 0 min 8,5 C 0,0 km/h (0 Bft)
13.06.2016 23:10 11,3 C 11,3 C 83 % 1006,6 hPa 0,0 mm 0,0 km/h (0 Bft) N 360 0 min 8,5 C 0,0 km/h (0 Bft)
13.06.2016 23:15 11,3 C 11,3 C 84 % 1006,6 hPa 0,0 mm 0,0 km/h (0 Bft) NW 315 0 min 8,7 C 0,0 km/h (0 Bft)
13.06.2016 23:20 11,3 C 11,2 C 84 % 1006,6 hPa 0,0 mm 1,5 km/h (1 Bft) W-NW 292 0 min 8,7 C 5,7 km/h (1 Bft)
13.06.2016 23:25 10,9 C 10,8 C 84 % 1006,6 hPa 0,0 mm 4,8 km/h (1 Bft) W-SW 247 0 min 8,3 C 10,1 km/h (2 Bft)
13.06.2016 23:30 10,8 C 10,7 C 84 % 1006,6 hPa 0,0 mm 5,7 km/h (1 Bft) W 270 0 min 8,2 C 0,0 km/h (0 Bft)
13.06.2016 23:35 10,8 C 10,6 C 84 % 1006,6 hPa 0,7 mm 1,2 km/h (1 Bft) W-SW 247 0 min 8,2 C 0,0 km/h (0 Bft)
13.06.2016 23:40 10,7 C 10,6 C 84 % 1006,6 hPa 0,0 mm 0,0 km/h (0 Bft) S-SW 202 0 min 8,1 C 0,0 km/h (0 Bft)
13.06.2016 23:45 10,7 C 10,6 C 84 % 1006,6 hPa 0,0 mm 0,0 km/h (0 Bft) SW 225 0 min 8,1 C 0,0 km/h (0 Bft)
13.06.2016 23:50 10,7 C 10,5 C 84 % 1006,6 hPa 0,0 mm 0,0 km/h (0 Bft) S-SO 157 0 min 8,1 C 0,0 km/h (0 Bft)
13.06.2016 23:55 10,7 C 10,5 C 84 % 1006,5 hPa 0,0 mm 0,0 km/h (0 Bft) W-SW 247 0 min 8,1 C 0,0 km/h (0 Bft)
_ Min-Zeit 05:45 05:40 16:20 18:50 - 23:55 - - - 05:45 23:55
Minimum _ 10,4 C 10,2 C 60 % 1006,0 hPa - 0,0 km/h (0 Bft) - - - 7,8 C 0,0 km/h (0 Bft)
_ Max-Zeit 16:10 14:25 07:30 00:10 21:45 17:20 - - 16:20 13:55 17:15
Maximum _ 18,7 C 23,9 C 86 % 1011,4 hPa 2,1 mm 18,2 km/h
W-SW (3 Bft)
- - 5 min 12,3 C 49,5 km/h
S (6 Bft)
Durchschnitt _ 13,9 C 14,9 C 76 % 1008,1 hPa #9,6 mm 4,2 km/h (1 Bft) W - #2:55 h 9,6 C 6,3 km/h (2 Bft)